EW6171 Weather Reports


Display with metric or nautical units.
time (UTC)temp
F
wind
direction
speed
MPH
gust
MPH
rain 1hr
in
rain 24hr
in
rain mn
in
humidity
%
barometer
mb
20260504023412 0 123 4.0 4.0 0.00 0.00 0.00 1015.5
20260504022902 0 115 4.0 5.0 0.00 0.00 0.00 1015.5
20260504022352 0 115 4.0 5.0 0.00 0.00 0.00 1015.4
20260504021842 0 114 4.0 4.0 0.00 0.00 0.00 1015.4
20260504021332 0 10 4.0 4.0 0.00 0.00 0.00 1015.4
20260504020822 0 129 4.0 6.0 0.00 0.00 0.00 1015.5
20260504020312 0 115 4.0 6.0 0.00 0.00 0.00 1015.4
20260504015806 0 127 4.0 4.0 0.00 0.00 0.00 1015.4
20260504015258 0 121 4.0 6.0 0.00 0.00 0.00 1015.4
20260504014748 0 123 4.0 6.0 0.00 0.00 0.00 1015.4
20260504014238 0 10 3.0 6.0 0.00 0.00 0.00 1015.4
20260504013732 0 10 3.0 6.0 0.00 0.00 0.00 1015.4
20260504013222 0 123 4.0 6.0 0.00 0.00 0.00 1015.3
20260504012208 0 10 4.0 8.0 0.00 0.00 0.00 1015.4
20260504011658 0 118 5.0 8.0 0.00 0.00 0.00 1015.3
20260504011148 0 138 5.0 9.0 0.00 0.00 0.00 1015.4
20260504010639 0 10 5.0 8.0 0.00 0.00 0.00 1015.4
20260504010132 0 138 6.0 9.0 0.00 0.00 0.00 1015.4
20260504005120 0 10 6.0 10.0 0.00 0.00 0.00 1015.4
20260504004618 0 10 6.0 10.0 0.00 0.00 0.00 1015.4
20260504004344 0 10 7.0 11.0 0.00 0.00 0.00 1015.4
20260504003609 0 10 8.0 11.0 0.00 0.00 0.00 1015.4
20260504003102 0 10 8.0 10.0 0.00 0.00 0.00 1015.4
20260504002601 0 159 8.0 12.0 0.00 0.00 0.00 1015.4
20260504002055 0 10 8.0 12.0 0.00 0.00 0.00 1015.3
20260504001550 0 10 7.0 11.0 0.00 0.00 0.00 1015.3
20260504001045 0 10 7.0 11.0 0.00 0.00 0.00 1015.4
20260504000539 0 10 9.0 12.0 0.00 0.00 0.00 1015.6
20260504000031 0 10 8.0 12.0 0.00 0.00 0.00 1015.6
20260503235523 0 10 9.0 12.0 0.00 0.00 0.00 1015.6
20260503235019 0 10 10.0 12.0 0.00 0.00 0.00 1015.5
20260503234516 0 153 10.0 12.0 0.00 0.00 0.00 1015.5
20260503234014 0 10 10.0 12.0 0.00 0.00 0.00 1015.4
20260503233746 0 10 11.0 14.0 0.00 0.00 0.00 1015.5
20260503233011 0 10 10.0 14.0 0.00 0.00 0.00 1015.5
20260503232737 0 10 9.0 14.0 0.00 0.00 0.00 1015.6
20260503232002 0 10 9.0 14.0 0.00 0.00 0.00 1015.6
20260503231456 0 163 9.0 13.0 0.00 0.00 0.00 1015.8
20260503230950 0 10 9.0 12.0 0.00 0.00 0.00 1015.7
20260503230714 0 10 9.0 12.0 0.00 0.00 0.00 1015.7
20260503225940 0 10 10.0 14.0 0.00 0.00 0.00 1015.8
20260503225432 0 10 10.0 14.0 0.00 0.00 0.00 1015.7
20260503224927 0 134 10.0 12.0 0.00 0.00 0.00 1015.7
20260503224417 0 10 11.0 15.0 0.00 0.00 0.00 1015.8
20260503223909 0 10 10.0 15.0 0.00 0.00 0.00 1015.8
20260503223406 0 10 10.0 15.0 0.00 0.00 0.00 1015.9
20260503222855 0 187 10.0 14.0 0.00 0.00 0.00 1015.9
20260503222348 0 10 10.0 13.0 0.00 0.00 0.00 1015.8
20260503221839 0 10 10.0 14.0 0.00 0.00 0.00 1015.9
20260503221329 0 164 10.0 12.0 0.00 0.00 0.00 1016.0
20260503220822 0 10 10.0 13.0 0.00 0.00 0.00 1016.1
20260503220312 0 10 10.0 13.0 0.00 0.00 0.00 1016.2
20260503215249 0 193 10.0 13.0 0.00 0.00 0.00 1016.4
20260503214733 0 10 10.0 13.0 0.00 0.00 0.00 1016.4
20260503214224 0 10 10.0 14.0 0.00 0.00 0.00 1016.4
20260503213713 0 172 10.0 14.0 0.00 0.00 0.00 1016.5
20260503213434 0 10 10.0 15.0 0.00 0.00 0.00 1016.5
20260503212648 0 192 10.0 15.0 0.00 0.00 0.00 1016.7
20260503212137 0 192 10.0 14.0 0.00 0.00 0.00 1016.9
20260503211346 0 10 10.0 13.0 0.00 0.00 0.00 1017.0
20260503210605 0 10 11.0 14.0 0.00 0.00 0.00 1017.0
20260503210326 0 10 10.0 14.0 0.00 0.00 0.00 1017.0
20260503205546 0 10 10.0 14.0 0.00 0.00 0.00 1017.1
20260503205307 0 162 11.0 15.0 0.00 0.00 0.00 1017.1
20260503204525 0 194 11.0 15.0 0.00 0.00 0.00 1017.2
20260503204016 0 10 11.0 15.0 0.00 0.00 0.00 1017.4
20260503203506 0 164 11.0 14.0 0.00 0.00 0.00 1017.4
20260503202949 0 10 11.0 15.0 0.00 0.00 0.00 1017.4
20260503202712 0 195 11.0 15.0 0.00 0.00 0.00 1017.4
20260503201922 0 10 11.0 15.0 0.00 0.00 0.00 1017.5
20260503201411 0 173 10.0 15.0 0.00 0.00 0.00 1017.5
20260503200901 0 188 11.0 15.0 0.00 0.00 0.00 1017.6
20260503200620 0 186 11.0 15.0 0.00 0.00 0.00 1017.6
20260503195845 0 10 11.0 15.0 0.00 0.00 0.00 1017.8
20260503195336 0 10 10.0 15.0 0.00 0.00 0.00 1017.8
20260503194824 0 181 10.0 15.0 0.00 0.00 0.00 1017.9
20260503194313 0 154 11.0 15.0 0.00 0.00 0.00 1018.0
20260503193803 0 10 10.0 15.0 0.00 0.00 0.00 1017.9
20260503193259 0 10 9.0 16.0 0.00 0.00 0.00 1018.0
20260503192747 0 217 10.0 14.0 0.00 0.00 0.00 1018.1
20260503192237 0 10 10.0 14.0 0.00 0.00 0.00 1018.1
20260503191718 0 10 10.0 13.0 0.00 0.00 0.00 1018.1
20260503191205 0 10 9.0 13.0 0.00 0.00 0.00 1018.2
20260503190656 0 10 9.0 12.0 0.00 0.00 0.00 1018.4
20260503190155 0 10 8.0 13.0 0.00 0.00 0.00 1018.4
20260503185644 0 10 8.0 13.0 0.00 0.00 0.00 1018.4
20260503185133 0 210 8.0 12.0 0.00 0.00 0.00 1018.4
20260503184624 0 10 9.0 13.0 0.00 0.00 0.00 1018.5
20260503184113 0 10 8.0 13.0 0.00 0.00 0.00 1018.6
20260503183605 0 10 7.0 11.0 0.00 0.00 0.00 1018.8
20260503183053 0 10 8.0 12.0 0.00 0.00 0.00 1018.9
20260503182544 0 10 7.0 12.0 0.00 0.00 0.00 1018.9
20260503182034 0 203 7.0 11.0 0.00 0.00 0.00 1019.0
20260503181523 0 203 7.0 11.0 0.00 0.00 0.00 1019.1
20260503181244 0 10 7.0 11.0 0.00 0.00 0.00 1019.2
20260503175946 0 10 7.0 12.0 0.00 0.00 0.00 1019.2
20260503175435 0 10 5.0 11.0 0.00 0.00 0.00 1019.4
20260503174925 0 138 4.0 12.0 0.00 0.00 0.00 1019.4
20260503174415 0 198 5.0 12.0 0.00 0.00 0.00 1019.5
20260503173905 0 88 7.0 11.0 0.00 0.00 0.00 1019.7
20260503173355 0 90 6.0 11.0 0.00 0.00 0.00 1019.8
20260503172848 0 93 6.0 11.0 0.00 0.00 0.00 1019.9
20260503172338 0 78 7.0 11.0 0.00 0.00 0.00 1020.0
20260503171830 0 65 6.0 11.0 0.00 0.00 0.00 1020.0
20260503171319 0 87 4.0 11.0 0.00 0.00 0.00 1020.1
20260503170809 0 104 5.0 10.0 0.00 0.00 0.00 1020.1
20260503170259 0 97 7.0 11.0 0.00 0.00 0.00 1020.2
20260503160105 0 73 4.0 8.0 0.00 0.00 0.00 1020.4
20260503150849 0 10 5.0 9.0 0.00 0.00 0.00 1020.2
20260503150345 0 111 3.0 9.0 0.00 0.00 0.00 1020.1
20260503140239 0 59 0.0 2.0 0.00 0.00 0.00 1019.7
20260503131200 0 352 0.0 2.0 0.00 0.00 0.00 1019.6
20260503130655 0 348 0.0 2.0 0.00 0.00 0.00 1019.5
20260503130152 0 27 0.0 2.0 0.00 0.00 0.00 1019.4
20260503110445 0 0 0.0 0.0 0.00 0.00 0.00 1018.5
20260503081431 0 316 0.0 0.0 0.00 0.00 0.00 1018.5
20260503080930 0 316 0.0 0.0 0.00 0.00 0.00 1018.3
20260503080418 0 316 0.0 0.0 0.00 0.00 0.00 1018.3
20260503080139 0 316 0.0 0.0 0.00 0.00 0.00 1018.3
20260503072809 0 312 0.0 0.0 0.00 0.00 0.00 1018.5
20260503072251 0 312 0.0 0.0 0.00 0.00 0.00 1018.4
20260503071740 0 312 0.0 0.0 0.00 0.00 0.00 1018.5
20260503071501 0 312 0.0 1.0 0.00 0.00 0.00 1018.6
20260503070951 0 317 0.0 1.0 0.00 0.00 0.00 1018.6
20260503070211 0 333 0.0 1.0 0.00 0.00 0.00 1018.5
20260503055003 0 333 0.0 0.0 0.00 0.00 0.00 1018.3
20260503054452 0 333 0.0 0.0 0.00 0.00 0.00 1018.3
20260503053941 0 333 0.0 0.0 0.00 0.00 0.00 1018.2
20260503053430 0 333 0.0 0.0 0.00 0.00 0.00 1018.1
20260503052919 0 333 0.0 0.0 0.00 0.00 0.00 1018.1
20260503052409 0 333 0.0 0.0 0.00 0.00 0.00 1018.2
20260503052129 0 333 0.0 0.0 0.00 0.00 0.00 1018.2
20260503050833 0 332 0.0 2.0 0.00 0.00 0.00 1018.1
20260503050322 0 333 1.0 3.0 0.00 0.00 0.00 1018.0
20260503045818 0 334 2.0 3.0 0.00 0.00 0.00 1017.9
20260503045310 0 341 2.0 3.0 0.00 0.00 0.00 1017.9
20260503044804 0 341 1.0 3.0 0.00 0.00 0.00 1017.8
20260503044524 0 349 1.0 2.0 0.00 0.00 0.00 1017.8
20260503043744 0 349 1.0 2.0 0.00 0.00 0.00 1017.8
20260503043235 0 10 0.0 2.0 0.00 0.00 0.00 1017.8
20260503042732 0 346 1.0 3.0 0.00 0.00 0.00 1017.8
20260503042221 0 10 2.0 3.0 0.00 0.00 0.00 1017.8
20260503041712 0 346 2.0 3.0 0.00 0.00 0.00 1017.7
20260503041159 0 10 2.0 4.0 0.00 0.00 0.00 1017.7
20260503040652 0 10 3.0 4.0 0.00 0.00 0.00 1017.7
20260503040135 0 10 3.0 4.0 0.00 0.00 0.00 1017.8
20260503035632 0 10 2.0 4.0 0.00 0.00 0.00 1017.7
20260503035348 0 337 1.0 3.0 0.00 0.00 0.00 1017.7
20260503034605 0 335 0.0 3.0 0.00 0.00 0.00 1017.7
20260503034058 0 334 0.0 3.0 0.00 0.00 0.00 1017.7
20260503033600 0 10 0.0 2.0 0.00 0.00 0.00 1017.5
20260503033053 0 339 0.0 2.0 0.00 0.00 0.00 1017.5
20260503032547 0 339 1.0 3.0 0.00 0.00 0.00 1017.4
20260503032041 0 339 2.0 3.0 0.00 0.00 0.00 1017.4
20260503031537 0 342 2.0 3.0 0.00 0.00 0.00 1017.3
20260503031031 0 346 2.0 3.0 0.00 0.00 0.00 1017.2
20260503030520 0 348 2.0 3.0 0.00 0.00 0.00 1017.2
20260503030012 0 353 1.0 3.0 0.00 0.00 0.00 1017.1
20260503025507 0 351 0.0 2.0 0.00 0.00 0.00 1017.1
20260503025001 0 350 1.0 2.0 0.00 0.00 0.00 1017.1
20260503024717 0 356 2.0 3.0 0.00 0.00 0.00 1017.0